KUIPER-00169

Last updated on Mon Oct 20 2025 00:02:06 GMT+0000 (Coordinated Universal Time)

1 65782U 25217W 25292.24854138 .00034721 00000+0 96037-3 0 9994 2 65782 51.8730 327.7922 0003054 139.0196 221.1020 15.36685567 3662
UTC large
Height (km)
Speed (km/s)
/
Latitude / Longitude
Inclination (degrees)
Orbital Period (minutes)
Azimuth
Elevation
Range (km)
Doppler Factor

Next 0 passes for location: London (51.5072 / 0.1276)

Sorry there are no passes over London.